User: anonymous   Login
Location: Avully
(45.9633°N, 6.0228°E)
Time: 02:13:10
(UTC+00:00)
Language:

Cosmos 1455 - Orbit

View from above orbital plane
View from above orbital plane
View from above satellite
View from above satellite

Ground track
Ground track

The orbit data is extracted from the following two-line orbital elements,

1 14032U 83037A   24200.61003851  .00025927  00000-0  67171-3 0  9993
2 14032  82.5057  35.2621 0009920 232.1078 127.9270 15.38849720254580
Epoch (UTC): 18 July 2024 14:38:27
Eccentricity: 0.0009920
inclination: 82.5057°
perigee height: 443 km
apogee height: 456 km
right ascension of ascending node: 35.2621°
argument of perigee: 232.1078°
revolutions per day: 15.38849720
mean anomaly at epoch: 127.9270°
orbit number at epoch: 25458

The dashed part of the orbit path shows where the satellite is in the earth's shadow,  

DLR